Edinburg, TX

4:21 AM CDT on June 26, 2017 (GMT -0500)
Edinburg

Weather History for KEBG - November, 2012

Change the Weather History Date:

Wednesday, November 21, 2012

  Actual Average (KMFE) Record (KMFE)
Temperature  
Mean Temperature 70 °F -  
Max Temperature 81 °F 75 °F 93 °F (2007)
Min Temperature 59 °F 56 °F 33 °F (1969)
Cooling Degree Days 5    
Growing Degree Days 20 (Base 50)    
Moisture  
Dew Point 59 °F    
Average Humidity 71    
Maximum Humidity 93    
Minimum Humidity 38    
Precipitation  
Precipitation 0.00 in - - ()
Sea Level Pressure  
Sea Level Pressure 30.19 in    
Wind  
Wind Speed 3 mph (ESE)    
Max Wind Speed 14 mph    
Max Gust Speed 18 mph    
Visibility 7 miles    
Events Rain    
Averages and records for this station are not official NWS values.
T = Trace of Precipitation, MM = Missing Value Source: NWS Daily Summary

Daily Weather History Graph

Daily Weather History Graph

Search for Another Location

Airport or City:

Trip Planner

Search our weather history database for the weather conditions in past years. The results will help you decide how hot, cold, wet, or windy it might be!

Date:

Astronomy

Nov. 21, 2012 Rise Set
Actual Time 6:56 AM CST 5:40 PM CST
Civil Twilight 6:31 AM CST 6:05 PM CST
Nautical Twilight 6:03 AM CST 6:33 PM CST
Astronomical Twilight 5:35 AM CST 7:01 PM CST
Moon 1:26 PM CST (11/21) 12:51 AM CST (11/21)
Length of Visible Light 11h 33m
Length of Day
10h 44m
First Quarter, 62% of the Moon is Illuminated
Nov 21
First Quarter
Nov 28
Full
Dec 6
Last Quarter
Dec 13
New
Dec 19
First Quarter

Hourly Weather History & Observations

Time (CST) Temp. Heat Index Dew Point Humidity Pressure Visibility Wind Dir Wind Speed Gust Speed Precip Events Conditions
12:15 AM 65.3 °F - 60.1 °F 83% 30.19 in 7.0 mi Calm Calm - N/A   Clear
12:35 AM 65.3 °F - 60.4 °F 84% 30.18 in 7.0 mi Calm Calm - N/A   Clear
12:55 AM 65.8 °F - 61.0 °F 84% 30.18 in 7.0 mi Calm Calm - N/A   Clear
1:15 AM 64.0 °F - 59.5 °F 85% 30.18 in 7.0 mi Calm Calm - N/A   Clear
1:35 AM 63.5 °F - 59.0 °F 85% 30.18 in 7.0 mi Calm Calm - N/A   Clear
1:55 AM 63.0 °F - 58.6 °F 86% 30.18 in 7.0 mi Calm Calm - N/A   Clear
2:15 AM 62.6 °F - 58.8 °F 87% 30.18 in 7.0 mi Calm Calm - N/A   Clear
2:35 AM 63.0 °F - 59.2 °F 87% 30.18 in 7.0 mi Calm Calm - N/A   Clear
2:55 AM 62.6 °F - 59.0 °F 88% 30.18 in 7.0 mi Calm Calm - N/A   Scattered Clouds
3:15 AM 62.6 °F - 59.0 °F 88% 30.18 in 7.0 mi Calm Calm - N/A   Clear
3:35 AM 62.1 °F - 58.8 °F 89% 30.18 in 7.0 mi Calm Calm - N/A   Clear
3:55 AM 61.7 °F - 58.5 °F 89% 30.18 in 7.0 mi Calm Calm - N/A   Clear
4:15 AM 61.2 °F - 57.9 °F 89% 30.18 in 7.0 mi Calm Calm - N/A   Clear
4:35 AM 61.0 °F - 57.7 °F 89% 30.18 in 7.0 mi Calm Calm - N/A   Clear
4:55 AM 61.5 °F - 58.5 °F 90% 30.18 in 7.0 mi Calm Calm - N/A   Clear
5:15 AM 60.3 °F - 57.2 °F 90% 30.19 in 7.0 mi Calm Calm - N/A   Clear
5:55 AM 59.7 °F - 56.8 °F 90% 30.19 in 5.0 mi Calm Calm - N/A   Clear
6:15 AM 59.4 °F - 56.5 °F 90% 30.20 in 7.0 mi North 4.6 mph - N/A   Clear
6:35 AM 59.4 °F - 56.7 °F 91% 30.21 in 5.0 mi Calm Calm - N/A   Clear
6:55 AM 59.2 °F - 56.7 °F 91% 30.21 in 4.0 mi Calm Calm - N/A   Clear
7:15 AM 59.2 °F - 56.8 °F 92% 30.21 in 2.0 mi Calm Calm - N/A   Clear
7:35 AM 59.5 °F - 57.2 °F 92% 30.22 in 1.0 mi Calm Calm - N/A   Mostly Cloudy
7:55 AM 60.6 °F - 58.3 °F 92% 30.23 in 0.2 mi Calm Calm - N/A Rain Light Rain
8:15 AM 61.7 °F - 59.5 °F 93% 30.23 in 0.5 mi Calm Calm - N/A Rain Light Rain
8:35 AM 63.7 °F - 61.7 °F 93% 30.24 in 4.0 mi Calm Calm - N/A   Scattered Clouds
8:55 AM 65.3 °F - 62.8 °F 92% 30.25 in 5.0 mi Calm Calm - N/A   Clear
9:15 AM 66.6 °F - 63.5 °F 90% 30.25 in 7.0 mi Calm Calm - N/A   Clear
9:35 AM 68.4 °F - 63.9 °F 85% 30.25 in 10.0 mi Calm Calm - N/A   Clear
9:55 AM 70.5 °F - 63.7 °F 79% 30.25 in 10.0 mi Calm Calm - N/A   Clear
10:15 AM 73.0 °F - 63.5 °F 72% 30.25 in 10.0 mi ENE 4.6 mph - N/A   Clear
10:55 AM 75.9 °F - 62.6 °F 63% 30.25 in 7.0 mi East 3.5 mph - N/A   Clear
11:15 AM 76.5 °F - 62.2 °F 61% 30.24 in 7.0 mi East 3.5 mph - N/A   Scattered Clouds
11:35 AM 78.4 °F - 60.8 °F 55% 30.23 in 7.0 mi ESE 9.2 mph - N/A   Scattered Clouds
11:55 AM 78.1 °F - 61.2 °F 56% 30.23 in 7.0 mi SE 6.9 mph - N/A   Mostly Cloudy
12:15 PM 78.1 °F - 61.5 °F 57% 30.21 in 5.0 mi SE 6.9 mph - N/A   Haze
12:35 PM 77.9 °F - 60.6 °F 55% 30.20 in 7.0 mi East 8.1 mph - N/A   Clear
12:55 PM 78.8 °F - 59.7 °F 52% 30.19 in 7.0 mi ESE 5.8 mph - N/A   Clear
1:15 PM 79.7 °F - 58.6 °F 48% 30.18 in 7.0 mi ESE 9.2 mph - N/A   Clear
1:35 PM 80.6 °F 80.8 °F 57.2 °F 45% 30.16 in 7.0 mi East 13.8 mph 18.4 mph N/A   Clear
1:55 PM 80.2 °F 80.5 °F 56.8 °F 45% 30.15 in 10.0 mi ESE 10.4 mph - N/A   Clear
2:15 PM 80.6 °F 80.7 °F 56.8 °F 44% 30.15 in 7.0 mi ESE 13.8 mph - N/A   Scattered Clouds
2:35 PM 81.0 °F 80.8 °F 55.9 °F 42% 30.14 in 7.0 mi East 11.5 mph - N/A   Mostly Cloudy
2:55 PM 80.4 °F 80.3 °F 54.7 °F 41% 30.14 in 7.0 mi East 13.8 mph - N/A   Scattered Clouds
3:15 PM 80.6 °F - 52.7 °F 38% 30.14 in 7.0 mi ESE 12.7 mph 17.3 mph N/A   Clear
3:35 PM 79.9 °F - 55.0 °F 42% 30.14 in 7.0 mi East 13.8 mph - N/A   Clear
3:55 PM 79.0 °F - 55.4 °F 44% 30.15 in 7.0 mi ESE 11.5 mph - N/A   Clear
4:15 PM 79.2 °F - 55.8 °F 44% 30.15 in 7.0 mi ESE 12.7 mph - N/A   Clear
4:35 PM 79.0 °F - 56.5 °F 46% 30.14 in 7.0 mi East 13.8 mph - N/A   Clear
4:55 PM 78.8 °F - 56.3 °F 46% 30.15 in 7.0 mi East 12.7 mph - N/A   Clear
5:15 PM 77.4 °F - 56.1 °F 48% 30.15 in 7.0 mi ESE 10.4 mph - N/A   Clear
5:35 PM 76.1 °F - 56.7 °F 51% 30.15 in 10.0 mi East 10.4 mph - N/A   Clear
5:55 PM 74.7 °F - 57.2 °F 54% 30.16 in 7.0 mi East 8.1 mph - N/A   Clear
6:15 PM 73.4 °F - 57.2 °F 57% 30.16 in 10.0 mi East 8.1 mph - N/A   Clear
6:35 PM 73.0 °F - 58.1 °F 59% 30.17 in 10.0 mi East 9.2 mph - N/A   Clear
6:55 PM 73.0 °F - 58.5 °F 60% 30.17 in 7.0 mi East 10.4 mph - N/A   Clear
7:15 PM 72.9 °F - 59.0 °F 62% 30.17 in 7.0 mi East 10.4 mph - N/A   Clear
7:35 PM 72.0 °F - 59.2 °F 64% 30.17 in 7.0 mi East 8.1 mph - N/A   Clear
7:55 PM 71.2 °F - 59.2 °F 66% 30.18 in 10.0 mi East 8.1 mph - N/A   Clear
8:15 PM 70.9 °F - 59.5 °F 67% 30.18 in 7.0 mi East 6.9 mph - N/A   Clear
8:35 PM 70.3 °F - 59.9 °F 69% 30.19 in 7.0 mi East 6.9 mph - N/A   Clear
8:55 PM 69.1 °F - 59.7 °F 72% 30.20 in 10.0 mi East 4.6 mph - N/A   Clear
9:15 PM 68.0 °F - 59.5 °F 74% 30.20 in 7.0 mi Calm Calm - N/A   Clear
9:35 PM 68.5 °F - 59.9 °F 74% 30.20 in 7.0 mi Calm Calm - N/A   Clear
9:55 PM 67.6 °F - 59.9 °F 76% 30.20 in 10.0 mi Calm Calm - N/A   Clear
10:15 PM 66.9 °F - 59.2 °F 76% 30.20 in 7.0 mi Calm Calm - N/A   Clear
10:35 PM 65.8 °F - 59.0 °F 79% 30.19 in 7.0 mi Calm Calm - N/A   Clear
10:55 PM 65.7 °F - 59.0 °F 79% 30.19 in 7.0 mi Calm Calm - N/A   Clear
11:15 PM 64.8 °F - 58.5 °F 80% 30.18 in 7.0 mi Calm Calm - N/A   Clear
11:35 PM 61.7 °F - 57.2 °F 85% 30.17 in 7.0 mi SE 3.5 mph - N/A   Clear
11:55 PM 62.1 °F - 57.6 °F 85% 30.16 in 7.0 mi ESE 3.5 mph - N/A   Clear